Погода в Нонтхабури

Таиланд     13°51′32″N   100°31′14″E
темп.,
°C
ветер,
м/с
пор.,
м/с
влажн.,
%
обл.,
%
осадки,
мм/ч
давл.,
гПа
погр.,
м
17 июня, чт
чт1701:00+29юз266397 0.0 1009395
04:00+28юз2469100 0.0 1008220
07:00+28зюз236796 0.0 1009239
10:00+31зюз3457100 0.0 1011873
13:00+35з4541100 0.1 10082294
16:00+36юз454063 0.0 10062104
19:00+32юз46538 0.1 1008934
22:00+30зюз345944 0.0 1010516
18 июня, пт
пт1801:00+29з236878 1.0 1010245
04:00+28з237019 0.0 1009204
07:00+28з236899 0.0 1010277
10:00+32з345088 0.0 10111149
13:00+36зюз343639 0.0 10092133
16:00+37юз243527 0.0 10062316
19:00+32юз455581 0.1 1008749
22:00+29ссв127169 3.6 1010338
19 июня, сб
сб1901:00+30зюз236663 3.7 1009261
04:00+28з357044 0.0 1009341
07:00+28зсз35685 0.0 1010310
10:00+33з34485 0.0 10111178
13:00+36з453529 0.0 10082327
16:00+37юз353417 0.0 10052283
19:00+32ююз5654100 0.0 1007488
22:00+31юз485991 0.0 1009760
20 июня, вс
вс2001:00+30з48579 0.0 1008541
04:00+28з36635 0.0 1008392
07:00+28з36645 0.0 1009386
10:00+33з45465 0.0 10091266
13:00+37з463629 0.0 10072325
16:00+35ююз5541100 0.1 10041477
19:00+31ююз5658100 0.1 1006571
22:00+31зюз4758100 0.2 1008712
21 июня, пн
пн2101:00+29зюз485937 0.2 1007530
04:00+28зюз386488 0.0 1007439
07:00+28з47655 0.0 1008457
10:00+33з464494 0.0 10081382
13:00+36з563696 0.0 10062320
16:00+33ю654991 0.1 1004556
19:00+32ююз585998 0.1 1004481
22:00+31зюз4854100 0.0 1007803